TimeHST,TemperatureF,Dew PointF,Humidity,Sea Level PressureIn,VisibilityMPH,Wind Direction,Wind SpeedMPH,Gust SpeedMPH,PrecipitationIn,Events,Conditions,WindDirDegrees,DateUTC
12:54 AM,71.1,57.9,63,30.22,10.0,NE,15.0,-,N/A,,Overcast,50,2013-03-03 10:54:00
1:54 AM,71.1,57.9,63,30.19,10.0,NE,12.7,-,N/A,,Overcast,50,2013-03-03 11:54:00
2:54 AM,70.0,57.0,63,30.17,10.0,NE,13.8,-,N/A,,Mostly Cloudy,50,2013-03-03 12:54:00
3:54 AM,70.0,55.9,61,30.15,10.0,NE,9.2,-,N/A,,Mostly Cloudy,50,2013-03-03 13:54:00
4:54 AM,69.1,55.0,61,30.15,10.0,NE,9.2,-,N/A,,Clear,50,2013-03-03 14:54:00
5:54 AM,69.1,57.0,65,30.14,10.0,NE,11.5,-,N/A,,Scattered Clouds,40,2013-03-03 15:54:00
6:54 AM,70.0,53.1,55,30.16,10.0,NE,16.1,-,N/A,,Partly Cloudy,40,2013-03-03 16:54:00
7:54 AM,72.0,59.0,64,30.17,10.0,NE,16.1,25.3,N/A,,Scattered Clouds,50,2013-03-03 17:54:00
8:54 AM,73.9,57.9,57,30.19,10.0,NE,16.1,23.0,N/A,,Scattered Clouds,50,2013-03-03 18:54:00
9:54 AM,77.0,57.0,50,30.19,10.0,ENE,19.6,29.9,N/A,,Scattered Clouds,60,2013-03-03 19:54:00
10:54 AM,77.0,55.0,47,30.17,10.0,ENE,20.7,29.9,N/A,,Partly Cloudy,60,2013-03-03 20:54:00
11:54 AM,79.0,55.9,45,30.16,10.0,NE,19.6,29.9,N/A,,Partly Cloudy,50,2013-03-03 21:54:00
12:54 PM,78.1,57.0,48,30.14,10.0,NE,23.0,32.2,N/A,,Partly Cloudy,50,2013-03-03 22:54:00
1:54 PM,78.1,57.9,50,30.13,10.0,NE,19.6,26.5,N/A,,Partly Cloudy,50,2013-03-03 23:54:00
2:54 PM,78.1,57.0,48,30.12,10.0,NE,23.0,32.2,N/A,,Partly Cloudy,40,2013-03-04 00:54:00
3:54 PM,75.9,57.0,52,30.11,10.0,ENE,18.4,31.1,N/A,,Scattered Clouds,60,2013-03-04 01:54:00
4:54 PM,75.0,59.0,57,30.12,10.0,NE,18.4,29.9,N/A,,Scattered Clouds,50,2013-03-04 02:54:00
5:54 PM,73.0,60.1,64,30.14,10.0,NE,21.9,29.9,N/A,,Scattered Clouds,50,2013-03-04 03:54:00
6:54 PM,72.0,59.0,64,30.16,10.0,NE,13.8,-,N/A,,Scattered Clouds,50,2013-03-04 04:54:00
7:54 PM,72.0,59.0,64,30.18,10.0,ENE,12.7,21.9,N/A,,Scattered Clouds,60,2013-03-04 05:54:00
8:54 PM,72.0,55.9,57,30.19,10.0,NE,12.7,23.0,N/A,,Scattered Clouds,50,2013-03-04 06:54:00
9:54 PM,71.1,57.9,63,30.20,10.0,NE,9.2,-,N/A,,Scattered Clouds,50,2013-03-04 07:54:00
10:54 PM,71.1,62.1,73,30.20,10.0,NE,11.5,-,N/A,,Scattered Clouds,50,2013-03-04 08:54:00
11:54 PM,69.1,57.9,68,30.20,10.0,NE,10.4,-,N/A,,Clear,50,2013-03-04 09:54:00